| Date | Time | Temp. (oF) | Dew Point (oF) | Rel. Hum. (%) | Press. (in.) | Wind Dir. | Wind Speed (mph) | Hourly Rainfall (in.) |
|
|---|---|---|---|---|---|---|---|---|---|
| 1 | 10/01 | 00:00 | 52 | 48 | 89 | 30.07 | SW | 0 | 0.00 |
| 2 | 09/30 | 23:00 | 52 | 47 | 86 | 30.08 | SSW | 1 | 0.00 |
| 3 | 09/30 | 22:00 | 53 | 47 | 83 | 30.10 | ESE | 0 | 0.00 |
| 4 | 09/30 | 21:00 | 54 | 46 | 76 | 30.10 | SE | 0 | 0.00 |
| 5 | 09/30 | 20:00 | 56 | 47 | 73 | 30.11 | ESE | 1 | 0.00 |
| 6 | 09/30 | 19:00 | 57 | 45 | 65 | 30.12 | N | 0 | 0.00 |
| 7 | 09/30 | 18:00 | 58 | 44 | 60 | 30.13 | NNE | 1 | 0.00 |
| 8 | 09/30 | 17:00 | 58 | 42 | 56 | 30.13 | ENE | 2 | 0.00 |
| 9 | 09/30 | 16:00 | 59 | 42 | 54 | 30.14 | NE | 4 | 0.00 |
| 10 | 09/30 | 15:00 | 59 | 41 | 52 | 30.15 | N | 3 | 0.00 |
| 11 | 09/30 | 14:00 | 59 | 40 | 51 | 30.17 | N | 9 | 0.00 |
| 12 | 09/30 | 13:00 | 59 | 40 | 51 | 30.20 | N | 10 | 0.00 |
| 13 | 09/30 | 12:00 | 58 | 40 | 53 | 30.21 | N | 10 | 0.00 |
| 14 | 09/30 | 11:00 | 55 | 39 | 56 | 30.21 | NNE | 6 | 0.00 |
| 15 | 09/30 | 10:00 | 54 | 39 | 59 | 30.23 | NNE | 14 | 0.00 |
| 16 | 09/30 | 09:00 | 51 | 40 | 67 | 30.23 | NW | 6 | 0.00 |
| 17 | 09/30 | 08:00 | 48 | 39 | 73 | 30.23 | N | 6 | 0.00 |
| 18 | 09/30 | 07:00 | 47 | 39 | 76 | 30.23 | NNW | 7 | 0.00 |
| 19 | 09/30 | 06:00 | 47 | 41 | 80 | 30.22 | NNW | 3 | 0.00 |
| 20 | 09/30 | 05:00 | 48 | 42 | 82 | 30.21 | NNW | 5 | 0.00 |
| 21 | 09/30 | 04:00 | 49 | 43 | 81 | 30.21 | NNW | 4 | 0.00 |
| 22 | 09/30 | 03:00 | 51 | 43 | 76 | 30.22 | NW | 2 | 0.00 |
| 23 | 09/30 | 02:00 | 51 | 44 | 78 | 30.22 | NNE | 3 | 0.00 |
| 24 | 09/30 | 01:00 | 51 | 46 | 83 | 30.21 | WNW | 1 | 0.00 |